Flag for U.S.A. Weather past 2 weeks in Lancaster, California, U.S.A.

Now
82 °F

Sunny.


Feels Like: 80 °F
Forecast: 54 / 86 °F
Wind: No wind

Location: Lancaster / Fox Field

Current Time: Sep 30, 2014 at 1:46:02 PM

Latest Report: Sep 30, 2014 at 12:56 PM


Visibility: 10 mi

Pressure: 29.85 "Hg

Humidity: 19%

Dew point: 36 °F

Location of LancasterLocation

Historic Weather in Lancaster — Graph

°F

Lancaster temperature yesterday

Maximum temperature yesterday: 77 °F (at 3:56 PM)
Minimum temperature yesterday: 52 °F (at 6:56 AM)
Average temperature yesterday: 65 °F

Past Weeks' High & Low Weather Summary

 TemperatureHumidityPressure
High100 °F (Sep 15, 1:56 PM)78% (Sep 19, 5:56 AM)30.02 "Hg (Sep 19, 5:56 AM)
Low48 °F (Sep 30, 4:56 AM)7% (Sep 23, 5:56 PM)29.71 "Hg (Sep 17, 3:56 PM)
Average73 °F38%29.88 "Hg
* Reported Sep 15 12:56 PM — Sep 30 12:56 PM, Lancaster, Weather by CustomWeather, © 2014

Note: Actual official high and low records may vary slightly from our data, if they occured in-between our weather recording intervals... More about our weather records

Advertising

Lancaster weather history for previous 24 hours

 ConditionsComfort  
Time TempWeatherWind HumidityBarometerVisibility
12:56 PM
Sep 30
82 °FSunny.No wind19%29.85 "Hg10 mi
11:56 AM80 °FSunny.No wind20%29.88 "Hg10 mi
10:56 AM76 °FSunny.3 mph27%29.90 "Hg10 mi
9:56 AM70 °FSunny.5 mph34%29.93 "Hg10 mi
8:56 AM61 °FSunny.No wind46%29.93 "Hg10 mi
7:56 AM55 °FSunny.No wind53%29.93 "Hg10 mi
6:56 AM48 °FClear.No wind59%29.94 "Hg10 mi
5:56 AM49 °FClear.No wind57%29.92 "Hg10 mi
4:56 AM48 °FClear.3 mph61%29.93 "Hg10 mi
3:56 AM52 °FClear.3 mph59%29.93 "Hg10 mi
2:56 AM54 °FClear.5 mph53%29.94 "Hg10 mi
1:56 AM54 °FClear.5 mph55%29.95 "Hg10 mi
12:56 AM53 °FClear.3 mph55%29.95 "Hg10 mi
11:56 PM
Sep 29
62 °FClear.5 mph43%29.95 "Hg10 mi
10:56 PM62 °FClear.6 mph48%29.96 "Hg10 mi
9:56 PM63 °FClear.8 mph48%29.96 "Hg10 mi
8:56 PM65 °FClear.10 mph44%29.95 "Hg10 mi
7:56 PM67 °FClear.13 mph41%29.93 "Hg10 mi
6:56 PM71 °FSunny.8 mph34%29.91 "Hg10 mi
5:56 PM77 °FSunny.No wind26%29.90 "Hg10 mi
4:56 PM77 °FSunny.3 mph24%29.90 "Hg10 mi
3:56 PM77 °FSunny.No wind28%29.91 "Hg10 mi
2:56 PM76 °FSunny.3 mph31%29.92 "Hg10 mi
1:56 PM76 °FSunny.10 mph25%29.94 "Hg10 mi
Weather by CustomWeather, © 2014

See weather overviewHow to use our weather pages